AirNav   Air Wisconsin Up To $57,000 Bonus
 
 746 users online  

9K8 Kingman Airport/Clyde Cessna Field
Kingman, Kansas, USA

GOING TO KINGMAN?


FAA INFORMATION EFFECTIVE 17 JUNE 2021

Location

FAA Identifier: 9K8
Lat/Long: 37-40-08.4580N 098-07-26.0101W
37-40.140967N 098-07.433502W
37.6690161,-98.1238917
(estimated)
Elevation: 1606.6 ft. / 489.7 m (surveyed)
Variation: 06E (2005)
From city: 1 mile NW of KINGMAN, KS
Time zone: UTC -5 (UTC -6 during Standard Time)
Zip code: 67068

Airport Operations

Airport use: Open to the public
Activation date: 08/1945
Control tower: no
ARTCC: KANSAS CITY CENTER
FSS: WICHITA FLIGHT SERVICE STATION
NOTAMs facility: ICT (NOTAM-D service available)
Attendance: MON-FRI 0830-2000
Wind indicator: lighted
Segmented circle: yes
Lights: ACTVT REIL RWY 18 & 36; PAPI RWY 18 & 36; HIRL 18/36 - CTAF.
Beacon: white-green (lighted land airport)
Operates sunset to sunrise.

Airport Communications

CTAF/UNICOM: 122.8
WX AWOS-3: 119.325 (620-532-1272)
WICHITA APPROACH: 125.5
WICHITA DEPARTURE: 125.5

Nearby radio navigation aids

VOR radial/distance  VOR name  Freq  Var
HUTr201/21.6HUTCHINSON VOR/DME116.8004E
ICTr253/26.0WICHITA VORTAC113.8007E

Airport Services

Fuel available: 100LL
100LL:SELF SVC FUEL AVBL WITH CREDIT CARD.
Parking: hangars and tiedowns
Airframe service: MAJOR
Powerplant service: MAJOR
Bottled oxygen: NONE
Bulk oxygen: NONE

Runway Information

Runway 18/36

Dimensions: 4300 x 75 ft. / 1311 x 23 m
Surface: concrete, in fair condition
Weight bearing capacity: 
PCN 11 /R/C/X/U
Single wheel: 30.0
Double wheel: 30.0
Runway edge lights: high intensity
RUNWAY 18  RUNWAY 36
Latitude: 37-40.435347N37-39.734007N
Longitude: 098-07.279277W098-07.406053W
Elevation: 1598.7 ft.1596.5 ft.
Traffic pattern: rightleft
Runway heading: 182 magnetic, 188 true002 magnetic, 008 true
Markings: nonprecision, in good conditionnonprecision, in good condition
Visual slope indicator: 4-light PAPI on left (3.00 degrees glide path)4-light PAPI on left (3.00 degrees glide path)
Runway end identifier lights: yesyes
Touchdown point: yes, no lightsyes, no lights
Obstructions: 15 ft. road, 550 ft. from runway, 24:1 slope to clear45 ft. trees, 1290 ft. from runway, 24:1 slope to clear

Runway 11/29

Dimensions: 3400 x 60 ft. / 1036 x 18 m
Surface: concrete, in good condition
Weight bearing capacity: 
PCN 11 /R/C/X/U
Single wheel: 30.0
Double wheel: 30.0
RUNWAY 11  RUNWAY 29
Latitude: 37-40.336687N37-40.087655N
Longitude: 098-07.864078W098-07.232797W
Elevation: 1606.6 ft.1592.5 ft.
Traffic pattern: leftright
Runway heading: 111 magnetic, 117 true291 magnetic, 297 true
Markings: nonprecision, in good conditionnonprecision, in good condition
Touchdown point: yes, no lightsyes, no lights
Obstructions: 29 ft. trees, 1350 ft. from runway, 39:1 slope to clear30 ft. pline, marked, 978 ft. from runway, 25:1 slope to clear
POWER LINE MARKED WITH ORANGE BALLS.

Airport Ownership and Management from official FAA records

Ownership: Publicly-owned
Owner: CITY OF KINGMAN
324 NORTH MAIN
KINGMAN, KS 67068
Phone 620-532-3111
Manager: EZRA OLSON
PO BOX 262
KINGMAN, KS 67068
Phone (620) 532-1279

Airport Operational Statistics

Aircraft based on the field: 23
Single engine airplanes: 22
Multi engine airplanes: 1
    
Aircraft operations: avg 26/day *
60% local general aviation
40% transient general aviation
* for 12-month period ending 31 July 2018

Additional Remarks

FOR CD CTC WICHITA APCH AT 316-350-1520.

Instrument Procedures

NOTE: All procedures below are presented as PDF files. If you need a reader for these files, you should download the free Adobe Reader.

NOT FOR NAVIGATION. Please procure official charts for flight.
FAA instrument procedures published for use from 17 June 2021 at 0901Z to 15 July 2021 at 0900Z.

 
IAPs - Instrument Approach Procedures
RNAV (GPS) RWY 18   download (242KB)
RNAV (GPS) RWY 36   download (237KB)
NOTE: Special Take-Off Minimums/Departure Procedures apply   download (384KB)

Other nearby airports with instrument procedures:

8K2 - Harper Municipal Airport (24 nm S)
KHUT - Hutchinson Regional Airport (27 nm NE)
KPTT - Pratt Regional Airport (30 nm W)
KANY - Anthony Municipal Airport (31 nm S)
KICT - Wichita Dwight D Eisenhower National Airport (33 nm E)
 
Loc | Ops | Rwys | IFR | FBO | Links
Com | Nav | Svcs | Stats | Notes
Area around 9K8 (Kingman Airport/Clyde Cessna Field)
 
Road maps at: MapQuest Bing Google
 
Aerial photo
WARNING: Photo may not be current or correct
Aerial photo of 9K8 (Kingman Airport/Clyde Cessna Field)
Do you have a better or more recent aerial photo of Kingman Airport/Clyde Cessna Field that you would like to share? If so, please send us your photo.

 
Sectional chart

 
Airport distance calculator
Flying to Kingman Airport/Clyde Cessna Field? Find the distance to fly.

From to 9K8

Sunrise and sunset
Times for 21-Jun-2021
 Local
(UTC-5)
 Zulu
(UTC)
Morning civil twilight05:4110:41
Sunrise06:1211:12
Sunset20:5601:56
Evening civil twilight21:2802:28

Current date and time
Zulu (UTC)  22-Jun-2021 04:14:14
Local (UTC-5)  21-Jun-2021 23:14:14
 
METAR
KHUT 
27nm NE 
220352Z AUTO 00000KT 10SM CLR 16/11 A3004 RMK AO2 SLP157 T01610106
KPTT 
30nm W 
220355Z AUTO 13003KT 10SM CLR 22/10 A3007 RMK AO2 T02160098
KP28 
31nm SW 
220356Z AUTO 00000KT 19/14 A3005 RMK AO1 SLP167 T01890139 $
KICT 
33nm E 
220353Z 16004KT 10SM CLR 20/12 A3004 RMK AO2 SLP163 T02000122
KLYO 
41nm N 
220355Z AUTO 11004KT 10SM CLR 19/09 A3005 RMK AO2 T01910093
KIAB 
41nm E 
220256Z AUTO 14004KT 10SM CLR 22/13 A3003 RMK AO2 SLPNO T02210132 52013 $
KBEC 
43nm E 
220355Z AUTO 15004KT 10SM CLR 18/12 A3005 RMK AO2 T01830118
KAAO 
43nm E 
220354Z AUTO 15004KT 10SM CLR 19/11 A3004 RMK AO2 SLP164 T01940111
KEWK 
46nm NE 
220356Z AUTO 14005KT 10SM CLR 17/08 A3006 RMK AO2 SLP168 T01720083
TAF
KHUT 
27nm NE 
211721Z 2118/2218 02014KT P6SM SCT150 FM220200 09005KT P6SM SKC
KICT 
33nm E 
211721Z 2118/2218 01009KT P6SM BKN180 FM220400 13005KT P6SM SKC
NOTAMs
Click for the latest NOTAMs
NOTAMs are issued by the DoD/FAA and will open in a separate window not controlled by AirNav.

 

 
 

FBO, Fuel Providers, and Aircraft Ground Support

  
 Business Name 
 
 Contact 
 
 Services / Description 
 
Fuel Prices
 
Comments
  
City of Kingman 620-532-1279
[web site]
[email]
Airport management, Aviation fuel, Aircraft parking (ramp or tiedown), Hangar leasing / sales, Passenger terminal and lounge, Courtesy transportation, ...

More info about City of Kingman
independent
100LL
AS $5.05 
 Updated 11-Jun-2021
 
   1 read write
AS=Assisted/Self Service
Update Fuel Prices
 

Aviation Businesses, Services, and Facilities

  
 Business Name 
 
 Contact 
 
 Services / Description 
 
Distance
 
Comments
  
Prairie Wind Aviation 620-755-4440
[email]
Hangars, Aircraft maintenance, Avionics sales and service, Aircraft modifications, Aircraft cleaning / washing / detailing, Aircraft sales / leasing / brokerage, Aircraft management, ...

More info about Prairie Wind Aviation
on airport  
   write
 

Would you like to see your business listed on this page?

 If your business provides an interesting product or service to pilots, flight crews, aircraft, or users of the Kingman Airport/Clyde Cessna Field, you should consider listing it here.  To start the listing process, click on the button below
 
Add a business
 

Other Pages about Kingman Airport/Clyde Cessna Field

www.cityofkingman.com/airport
 
Update a link
 
Copyright © AirNav, LLC. All rights reserved. Privacy Policy  Contact